www.pogodaiklimat.ru

Архив погоды в Красной Поляне (Краснодарский край, Россия)

Время
(UTC), дата
03 26.06
06 26.06
09 26.06
12 26.06
15 26.06
18 26.06
21 26.06
00 27.06
03 27.06
06 27.06
09 27.06
12 27.06
15 27.06
18 27.06
21 27.06
00 28.06
03 28.06
06 28.06
09 28.06
12 28.06
15 28.06
18 28.06
21 28.06
00 29.06
03 29.06
06 29.06
09 29.06
12 29.06
15 29.06
18 29.06
21 29.06
00 30.06
03 30.06
06 30.06
09 30.06
12 30.06
15 30.06
18 30.06
21 30.06
00 1.07
03 1.07
06 1.07
09 1.07
12 1.07
15 1.07
18 1.07
21 1.07
00 2.07
03 2.07
06 2.07
09 2.07
12 2.07
15 2.07
18 2.07
21 2.07
00 3.07
Ветер
(напр.,м/с)
Видим. Явления Облачность Т
(С)
Тd
(С)
f
(%)
Тe
(С)
Тes
(С)
Комфортность P
(гПа)
Po
(гПа)
Тmin
(С)
Tmax
(С)
R
(мм)
R24
(мм)
S
(см)
В 2 17 км слаб. ливневой дождь 10/8 1000 м
[Cb cap Ac As]
+15.9 +15.9 100 +16 +16 1008.3 943.6 +15.4 2
Ю 1 5000 м слаб. ливневой дождь 10/10 30 м
[Cb cap]
+16.5 +16.5 100 +17 +17 1008.1 943.6
ЮЗ 1 17 км слаб. ливневой дождь 10/10 1500 м
[Cb cap]
+17.8 +17.8 100 +19 +19 1008.0 943.8
ЮВ 1 19 км слаб. ливневой дождь 10/8 300 м
[Cb cap Ac As]
+18.5 +16.5 88 +20 +21 1008.1 944.0
ЮЗ 2 8000 м слаб. ливневой дождь 10/10 150 м
[Cb cap]
+16.5 +16.5 100 +17 +17 1009.4 944.8 +19.0 4
В 1 7000 м слаб. ливневой дождь 10/10 900 м
[Cb cap]
+15.5 +15.5 100 +16 +16 1011.0 946.1
штиль 0 2500 м ливневой дождь 10/10 60 м
[Cb cap]
+15.3 +15.3 100 +15 +15 1011.1 946.1
штиль 0 3100 м слаб. ливневой дождь 10/10 750 м
[Cb cap]
+15.1 +15.1 100 +15 +15 1011.2 946.2
В 1 20 км {ливн. дождь} 9/9 240 м
[Sc]
+15.2 +15.2 100 +16 +16 1010.9 945.9 +14.9 9
Ю 1 20 км {ливн. дождь} 8/4 750 м
[Cu med, cong Ac cast]
+19.8 +16.1 79 +23 +27 комфорт 1009.2 945.3
ЮЗ 4 20 км 8/5 1000 м
[Cu med, cong Ac cast Ci fib]
+23.1 +15.9 64 +28 +32 душно 1007.7 944.6
С 1 20 км 8/6 600 м
[Cu med, cong Ac cuf]
+20.4 +16.0 76 +24 +29 комфорт 1008.2 944.5
С 2 20 км слаб. ливневой дождь, в посл. час гроза 10/8 600 м
[Cb cap Ac As]
+17.3 +17.3 100 +18 +18 1010.6 946.1 +23.7 15
СВ 2 19 км {ливн. дождь} 10/8 240 м
[Cb calv Ac As]
+16.7 +16.7 100 +17 +17 1011.6 946.9
СЗ 1 17 км 10/10 150 м
[Sc]
+15.7 +15.7 100 +16 +16 1011.2 946.3
С 1 20 км {туман} 10/10 480 м
[Sc]
+15.7 +15.7 100 +16 +16 1010.8 945.9
СВ 1 20 км 6/3 1500 м
[Sc Ac cast Ci sp]
+14.9 +14.9 100 +15 +16 1010.6 945.5 +14.1 2
ЮЗ 2 20 км 3/1 1500 м
[Cu med, cong Ac lent Ci]
+20.3 +15.5 74 +24 +32 комфорт 1008.6 944.8
ЮЗ 4 20 км 3/3 1500 м
[Cu med, cong]
+24.0 +16.8 64 +28 +37 душно 1007.3 944.4
ЮЗ 5-10
{10}
19 км 6/5 600 м
[Cu Sc Ci ing]
+22.4 +17.5 74 +27 +31 душно 1008.1 944.9
Ю 2
{10}
20 км 4/3 1000 м
[Cu Sc Ci ing]
+22.9 +18.0 74 +28 +30 душно 1007.9 944.8 +25.5
ЮЗ 1 18 км 10/10 180 м
[Cb calv]
+19.0 +19.0 100 +22 +22 комфорт 1010.3 946.3
ЮВ 1 17 км 10/10 300 м
[Sc]
+18.5 +18.5 100 +21 +21 комфорт 1011.9 947.6
СВ 2 20 км 6/4 1500 м
[Sc Ci ing]
+17.9 +14.6 81 +18 +18 1011.6 947.1
СВ 2 18 км 3/1 1500 м
[Sc Ci ing]
+15.8 +15.3 97 +16 +17 1012.3 947.3 +15.1 0.1
Ю 2 20 км 3/3 600 м
[Cu hum]
+22.1 +15.2 65 +26 +33 душно 1010.3 946.8
ЮЗ 5 20 км 3/3 600 м
[Cu med, cong Ac trans]
+24.1 +16.1 61 +27 +35 жарко 1009.9 946.9
ЮЗ 4 20 км 9/9 900 м
[Sc]
+22.4 +18.2 77 +28 +29 душно 1011.1 947.7
З 2 20 км 10/6 700 м
[Sc Ac trans Ci fib]
+21.4 +17.6 79 +26 +26 душно 1010.5 946.9 +24.8
ЮЗ 1 20 км 10/10 500 м
[Sc]
+19.5 +19.5 100 +23 +23 комфорт 1012.2 948.2
В 1 14 км 10/10 300 м
[Sc]
+18.9 +18.9 100 +22 +22 комфорт 1012.8 948.6
С 1 20 км 1/1 600 м
[Sc]
+17.3 +17.3 100 +18 +18 1012.9 948.3
С 2 20 км ясно +16.4 +16.4 100 +16 +17 1012.8 948.0 +16.1
Ю 2 20 км 1/0
[Ac cast]
+22.7 +15.1 62 +27 +37 душно 1010.4 947.0
ЮЗ 3 20 км 3/3 600 м
[Cu med, cong]
+26.1 +18.0 61 +31 +42 очень
душно
1008.8 946.3
ЮЗ 4 20 км 6/6 1000 м
[Cu Sc]
+27.6 +18.6 58 +33 +36 очень
душно
1007.6 945.5
ЮЗ 2 20 км 3/3 1000 м
[Cu med, cong]
+24.8 +19.4 72 +30 +32 душно 1007.8 945.1 +28.0
С 1 20 км ясно +20.6 +18.5 88 +26 +26 душно 1010.0 946.3
С 1 20 км 9/6 1410 м
[Sc As trans Ci fib]
+19.1 +17.6 91 +22 +22 комфорт 1011.1 947.0
В 1 20 км 10/0
[Ac trans Ci fib]
+18.4 +15.6 84 +20 +20 1011.3 947.0
СВ 1 20 км 9/9 1500 м
[Sc]
+17.3 +15.6 90 +18 +18 1011.4 946.8 +17.0
Ю 2 20 км 8/8 1500 м
[Cu med, cong]
+21.4 +15.9 71 +25 +27 комфорт 1010.1 946.5
ЮЗ 4 20 км 9/8 600 м
[Cu Sc As trans Ci sp]
+26.2 +18.1 61 +31 +33 очень
душно
1008.1 945.7
В 4 11 км гроза, ливневой дождь 10/9 600 м
[Cb calv Ac trans]
+19.1 +18.9 99 +21 +21 комфорт 1011.6 947.5
ЮЗ 1 19 км {гроза, ливн. дождь} 9/3 1500 м
[Sc Ac As Cs]
+20.8 +20.8 100 +27 +28 душно 1010.0 946.4 +26.9 8
С 1 20 км {гроза, ливн. дождь} 4/3 540 м
[Sc Ci fib]
+18.1 +18.1 100 +19 +19 1011.4 947.1
С 1 20 км 3/0
[Ci fib]
+16.4 +16.4 100 +17 +17 1012.4 947.6
С 1 20 км 3/0
[Ci fib]
+15.0 +15.0 100 +15 +15 1012.8 947.6
С 1 20 км ясно +14.8 +14.8 100 +15 +16 1012.7 947.5 +14.2
Ю 2 20 км 1/1 1500 м
[Cu hum]
+21.6 +15.0 66 +25 +35 комфорт 1010.2 946.6
ЮЗ 5 20 км 4/3 1500 м
[Cu med, cong Ac cuf]
+25.3 +14.4 51 +28 +34 жарко 1008.6 945.8
З 3
{10}
20 км 6/4 1000 м
[Cu med, cong Ac cuf]
+24.0 +15.8 60 +27 +32 жарко 1008.8 945.8
З 2 20 км 3/3 1000 м
[Cu med, cong]
+24.3 +13.5 51 +27 +28 жарко 1009.2 946.2 +26.2
С 2 20 км ясно +19.2 +8.8 51 +21 +21 комфорт 1012.8 948.4
С 2 20 км ясно +15.2 +7.0 58 +15 +15 1014.4 949.0
С 3 20 км ясно +12.6 +4.3 57 +11 +11 1015.7 949.6
Местоположение метеостанции Красная Поляна (Краснодарский край, Россия): широта 43.68 долгота 40.20 высота над уровнем моря 567 м.
В архиве по умолчанию представлена погода в Красной Поляне за последнюю неделю. Архивные данные за месяц целиком и за предыдущие месяцы, начиная с января 2011 года, Вы можете получить, выбрав интересующий диапазон дат из раскрывающегося списка и нажав кнопку "Найти!".
*Определитесь, кто Вы:
Внимание! Время в таблицах - всемирное. Для получения местного времени необходимо прибавить поправку, которая равна 3 ч.
Смотрите также архив погоды в соседних городах и на ближайших метеорологических станциях:
Партнеры нашего сайта:      
Пояснения к столбцам:
  • Ветер - указаны скорость ветра в м/с - средняя за 10 мин, порывы в срок и между сроками (в фигурных скобках) и направление, откуда дует ветер: С - северный,
  • СВ - северо-восточный, В - восточный, ЮВ - юго-восточный, Ю - южный, ЮЗ - юго-западный, З - западный, СЗ - северо-западный.
  • Видимость - горизонтальная дальность видимости в метрах или километрах. При видимости от 1 до 10 км при отсутствии осадков обычно наблюдается дымка, при ухудшении видимости до 1 км и менее - туман. В сухую погоду видимость может ухудшаться дымом, пылью или мглою.
  • Явления - указаны атмосферные явления, наблюдавшиеся в срок или в последний час перед сроком; фигурными скобками обозначены явления, наблюдавшиеся между сроками (за 1-3 часа до срока); квадратными скобками обозначены град или гололедные отложения с указанием их диаметра в мм.
  • Облачность - указаны через наклонную черту общая и нижняя облачность в баллах и высота нижней границы облаков в метрах; квадратными скобками обозначены формы облаков: Ci - перистые, Cs - перисто-слоистые, Cc - перисто-кучевые, Ac - высококучевые, As - высокослоистые, Sc - слоисто-кучевые, Ns - слоисто-дождевые, Cu - кучевые, Cb - кучево-дождевые. Подробнее классификацию облаков см. в Атласе облаков (PDF).
  • T - Температура воздуха - температура, измеренная на высоте 2 м над землей.
  • Td - Температура точки росы - температура, при понижении до которой содержащийся в воздухе водяной пар достигнет насыщения.
  • f - Относительная влажность воздуха - влажноcть воздуха, измеренная на высоте 2 м над землей.
  • Te - Эффективная температура - температура, которую ощущает одетый по сезону человек в тени. Характеристика душности погоды. При расчете учитывается влияние влажности воздуха и скорости ветра на теплоощущения человека.
  • Tes - Эффективная температура на солнце - температура, которую ощущает человек, с поправкой на солнечный нагрев. Характеристика знойности погоды. Зависит от высоты солнца над горизонтом, облачности и скорости ветра. Ночью, в пасмурную погоду, а также при ветре 12 м/с и более поправка равна нулю.
  • P - Атмосферное давление - приведенное к уровню моря атмосферное давление.
  • Po - Атмосферное давление - измеренное на уровне метеостанции атмосферное давление.
  • Tmin - Минимальная температура - минимум температуры воздуха на высоте 2 м над землей.
  • Tmax - Максимальная температура - максимум температуры воздуха на высоте 2 м над землей.
  • R - Количество осадков - Количество выпавших осадков за период времени, мм. При наведении курсора мыши на число - период времени, за который выпало указанное количество осадков.
  • R24 - Количество осадков - Количество выпавших осадков за 24 часа, мм.
  • S - Снежный покров - Высота снежного покрова, см. При наведении курсора мыши на число - состояние снежного покрова и степень покрытия местности в баллах.